Location: Brachbach
(49.1847°N, 9.7240°E)
Time: 19:40:28
(UTC+00:00)

COSMOS 2406 - Pass Details

Date: 23 May 2024
Orbit: 844 x 861 km, 71.0° (Epoch: 23 June)

Event Time Altitude Azimuth Distance (km) Brightness Sun altitude
Exits shadow 01:19:31 18° 239° (WSW) 1,973 4.6 -15.1°
Maximum altitude 01:23:32 48° 306° (NW) 1,124 3.9 -14.8°
Drops below altitude 10° 01:29:06 10° 21° (NNE) 2,509 7.0 -14.3°
Sets 01:31:41 0° 27° (NNE) 3,447 8.3 -14.1°
